Flag for Canada Weather past 2 weeks in Morden, Manitoba, Canada

Now
10 °F

Frigid.


Feels Like: -2 °F
Forecast: 0 / 17 °F
Wind: 7 mph from South

Location: Morden CDA CS

Current Time: Feb 28, 2015 at 10:35:43 AM

Latest Report: Feb 28, 2015 at 10:00 AM


Visibility: N/A

Pressure: 30.20 "Hg

Humidity: 73%

Dew point: 2 °F

Location of MordenLocation

Historic Weather in Morden — Graph

°F

Morden temperature yesterday

Maximum temperature yesterday: 15 °F (at 2:00 PM)
Minimum temperature yesterday: -3 °F (at 7:00 AM)
Average temperature yesterday: 5 °F

Past Weeks' High & Low Weather Summary

 TemperatureHumidityPressure
High33 °F (Feb 24, 12:00 AM)94% (Feb 24, 1:00 AM)30.86 "Hg (Feb 24, 1:00 AM)
Low-22 °F (Feb 22, 4:00 AM)49% (Feb 27, 2:00 PM)29.71 "Hg (Feb 23, 4:00 PM)
Average0 °F70%30.32 "Hg
* Reported Feb 13 9:00 AM — Feb 28 9:00 AM, Morden, Weather by CustomWeather, © 2015

Note: Actual official high and low records may vary slightly from our data, if they occured in-between our weather recording intervals... More about our weather records

Advertising

Morden weather history for previous 24 hours

 ConditionsComfort  
Time TempWeatherWind HumidityBarometerVisibility
9:00 AM
Sat, Feb 28
5 °FFrigid.7 mph80%30.21 "HgN/A
8:00 AM3 °FFrigid.6 mph82%30.23 "HgN/A
7:00 AM1 °FFrigid.2 mph82%30.24 "HgN/A
6:00 AM1 °FFrigid.6 mph80%30.24 "HgN/A
5:00 AM4 °FFrigid.2 mph73%30.24 "HgN/A
4:00 AM6 °FFrigid.5 mph70%30.26 "HgN/A
2:00 AM8 °FFrigid.8 mph69%30.29 "HgN/A
1:00 AM9 °FFrigid.6 mph68%30.30 "HgN/A
12:00 AM9 °FFrigid.5 mph66%30.32 "HgN/A
11:00 PM
Fri, Feb 27
11 °FCold.6 mph59%30.33 "HgN/A
10:00 PM8 °FFrigid.6 mph66%30.34 "HgN/A
9:00 PM6 °FFrigid.2 mph77%30.35 "HgN/A
8:00 PM6 °FFrigid.5 mph72%30.35 "HgN/A
7:00 PM10 °FFrigid.6 mph67%30.36 "HgN/A
6:00 PM11 °FCold.7 mph67%30.36 "HgN/A
5:00 PM14 °FCold.8 mph61%30.37 "HgN/A
4:00 PM13 °FCold.9 mph61%30.38 "HgN/A
3:00 PM14 °FCold.8 mph57%30.39 "HgN/A
2:00 PM15 °FCold.9 mph49%30.40 "HgN/A
1:00 PM12 °FCold.8 mph53%30.43 "HgN/A
12:00 PM10 °FFrigid.12 mph53%30.44 "HgN/A
11:00 AM7 °FFrigid.13 mph54%30.44 "HgN/A
10:00 AM3 °FFrigid.12 mph54%30.44 "HgN/A
Weather by CustomWeather, © 2015

See weather overviewHow to use our weather pages